If you wish to contribute or participate in the discussions about articles you are invited to join SKYbrary as a registered user

 Actions

Angers-Loire Airport

From SKYbrary Wiki

LFJR
Airport
ICAO: LFJR – IATA: ANE
Summary
Name Angers-Loire Airport
Region Europe
Territory France FR.gif
Location Marcé, Pays de la Loire
Serving Angers
Elevation 59.131 m
194 ft
194 ft59.131 m
Type medium airport
Coordinates 47° 33' 37.08" N, 0° 18' 44.00" W
Runways
Designator Length Width Surface ROPS
8/26 1800 m5,905.512 ft
45 m147.638 ft
ASP yes/yes


METAR
Observation LFJR 230600Z AUTO 06003KT 030V090 CAVOK 14/11 Q1024
Station MARCE
Date/Time 23 August 2019 06:00:00
Wind direction 60°
Wind speed 03 kts
Lowest cloud amount clouds and visibility OK
Temperature 14°C
Dew point 11°C
Humidity 82%
QNH 1024 hPa
Weather condition n/a

Maps

Terrain

Loading map...

Airport Layout

Loading map...


Accidents & Serious Incidents at or in vicinity of LFJR

None on SKYbrary